Weather History for Hulett, WY

Change the Weather History Date:

Saturday, October 5, 2013

  Actual Average (KEFC) Record (KEFC)
Temperature  
Mean Temperature 34 °F -  
Max Temperature 39 °F 68 °F 88 °F (1949)
Min Temperature 28 °F 38 °F 17 °F (1952)
Degree Days  
Heating Degree Days 32    
Moisture  
Dew Point 29 °F    
Average Humidity 84    
Maximum Humidity 93    
Minimum Humidity 75    
Precipitation  
Precipitation 0.00 in - - ()
Sea Level Pressure  
Sea Level Pressure 30.18 in    
Wind  
Wind Speed 9 mph (West)    
Max Wind Speed 16 mph    
Max Gust Speed 24 mph    
Visibility 10 miles    
Events Snow    
Averages and records for this station are not official NWS values.
T = Trace of Precipitation, MM = Missing Value Source: NWS Daily Summary

Daily Weather History Graph

Daily Weather History Graph

Search for Another Location

Airport:

Trip Planner

Search our weather history database for the weather conditions in past years. The results will help you decide how hot, cold, wet, or windy it might be!

Date:

Astronomy

Oct. 05, 2013 Rise Set
Actual Time 7:01 AM MDT 6:30 PM MDT
Civil Twilight 6:32 AM MDT 7:00 PM MDT
Nautical Twilight 5:58 AM MDT 7:33 PM MDT
Astronomical Twilight 5:24 AM MDT 8:07 PM MDT
Moon 7:46 AM MDT (10/5) 6:47 PM MDT (10/5)
Length of Visible Light 12h 27m
Length of Day
11h 29m
New Moon, 1% of the Moon is Illuminated
Oct 5
New Moon
Oct 11
First Quarter
Oct 18
Full
Oct 26
Last Quarter
Nov 3
New

Hourly Weather History & Observations

Time (MDT) Temp. Windchill Dew Point Humidity Pressure Visibility Wind Dir Wind Speed Gust Speed Precip Events Conditions
12:15 AM 30.2 °F - 28.4 °F 93% 30.22 in 0.5 mi North - - N/A Snow Snow
12:35 AM 30.2 °F - 28.4 °F 93% 30.21 in 3.0 mi North - - N/A Snow Light Snow
12:55 AM 30.2 °F 20.2 °F 28.4 °F 93% 30.21 in 2.0 mi NNW 12.7 mph 24.2 mph N/A Snow Light Snow
1:15 AM 32.0 °F 23.0 °F 28.4 °F 87% 30.21 in 5.0 mi NNW 11.5 mph - N/A Snow Light Snow
1:35 AM 32.0 °F 21.2 °F 28.4 °F 87% 30.22 in 10.0 mi NNW 16.1 mph 20.7 mph N/A   Overcast
1:55 AM 32.0 °F 23.0 °F 28.4 °F 87% 30.21 in 10.0 mi NW 11.5 mph 17.3 mph N/A   Overcast
2:15 AM 32.0 °F 23.0 °F 28.4 °F 87% 30.23 in 10.0 mi North 11.5 mph 18.4 mph N/A   Overcast
2:35 AM 32.0 °F 23.0 °F 28.4 °F 87% 30.21 in 10.0 mi NNW 11.5 mph 19.6 mph N/A   Overcast
2:55 AM 32.0 °F 24.8 °F 28.4 °F 87% 30.21 in 10.0 mi NW 8.1 mph 16.1 mph N/A   Overcast
3:15 AM 32.0 °F 24.2 °F 26.6 °F 80% 30.21 in 10.0 mi NW 9.2 mph 16.1 mph N/A   Overcast
3:35 AM 32.0 °F 22.5 °F 26.6 °F 80% 30.20 in 10.0 mi NNW 12.7 mph 16.1 mph N/A   Mostly Cloudy
3:55 AM 32.0 °F 23.0 °F 26.6 °F 80% 30.21 in 10.0 mi NW 11.5 mph 16.1 mph N/A   Scattered Clouds
4:15 AM 32.0 °F 24.2 °F 26.6 °F 80% 30.21 in 10.0 mi NNW 9.2 mph - N/A   Scattered Clouds
4:35 AM 32.0 °F 23.6 °F 26.6 °F 80% 30.21 in 10.0 mi NNW 10.4 mph 17.3 mph N/A   Clear
4:55 AM 30.2 °F 22.6 °F 26.6 °F 86% 30.21 in 10.0 mi NW 8.1 mph - N/A   Mostly Cloudy
5:15 AM 30.2 °F 25.4 °F 26.6 °F 86% 30.21 in 10.0 mi NNW 4.6 mph - N/A   Overcast
5:35 AM 30.2 °F 24.3 °F 26.6 °F 86% 30.20 in 10.0 mi NNW 5.8 mph - N/A   Overcast
5:55 AM 30.2 °F 22.6 °F 26.6 °F 86% 30.20 in 10.0 mi NW 8.1 mph - N/A   Mostly Cloudy
6:15 AM 30.2 °F 22.6 °F 26.6 °F 86% 30.20 in 10.0 mi NW 8.1 mph - N/A   Scattered Clouds
6:35 AM 30.2 °F 22.6 °F 26.6 °F 86% 30.20 in 10.0 mi NW 8.1 mph - N/A   Scattered Clouds
6:55 AM 30.2 °F 21.3 °F 26.6 °F 86% 30.19 in 10.0 mi NW 10.4 mph - N/A   Scattered Clouds
7:15 AM 30.2 °F 23.4 °F 26.6 °F 86% 30.19 in 10.0 mi WNW 6.9 mph - N/A   Clear
7:35 AM 28.4 °F 21.2 °F 26.6 °F 93% 30.19 in 10.0 mi NW 6.9 mph - N/A   Scattered Clouds
7:55 AM 28.4 °F 21.2 °F 24.8 °F 86% 30.19 in 10.0 mi NW 6.9 mph - N/A   Mostly Cloudy
8:15 AM 28.4 °F 22.2 °F 24.8 °F 86% 30.19 in 10.0 mi NW 5.8 mph - N/A   Scattered Clouds
8:35 AM 28.4 °F - 24.8 °F 86% 30.19 in 10.0 mi Calm Calm - N/A   Clear
8:55 AM 28.4 °F 24.6 °F 24.8 °F 86% 30.19 in 10.0 mi West 3.5 mph - N/A   Clear
9:15 AM 30.2 °F 25.4 °F 24.8 °F 80% 30.19 in 10.0 mi NW 4.6 mph - N/A   Clear
9:35 AM 30.2 °F 25.4 °F 26.6 °F 86% 30.20 in 10.0 mi NW 4.6 mph - N/A   Clear
9:55 AM 32.0 °F 28.7 °F 26.6 °F 80% 30.21 in 10.0 mi NNW 3.5 mph - N/A   Clear
10:15 AM 32.0 °F 28.7 °F 26.6 °F 80% 30.19 in 10.0 mi WNW 3.5 mph - N/A   Clear
10:35 AM 32.0 °F - 26.6 °F 80% 30.21 in 10.0 mi Calm Calm - N/A   Clear
10:55 AM 32.0 °F - 26.6 °F 80% 30.20 in 10.0 mi Calm Calm - N/A   Clear
11:15 AM 33.8 °F - 26.6 °F 75% 30.21 in 10.0 mi Calm Calm - N/A   Clear
11:35 AM 33.8 °F 25.8 °F 26.6 °F 75% 30.21 in 10.0 mi NNW 10.4 mph - N/A   Clear
11:55 AM 33.8 °F 27.7 °F 28.4 °F 81% 30.20 in 10.0 mi NNW 6.9 mph - N/A   Clear
12:15 PM 35.6 °F 28.6 °F 28.4 °F 75% 30.20 in 10.0 mi NNW 9.2 mph - N/A   Clear
12:35 PM 35.6 °F 28.6 °F 28.4 °F 75% 30.20 in 10.0 mi NW 9.2 mph - N/A   Clear
12:55 PM 35.6 °F 29.2 °F 30.2 °F 81% 30.19 in 10.0 mi NW 8.1 mph - N/A   Clear
1:15 PM 35.6 °F 29.2 °F 30.2 °F 81% 30.18 in 10.0 mi WNW 8.1 mph - N/A   Clear
1:35 PM 37.4 °F 34.9 °F 30.2 °F 75% 30.18 in 10.0 mi NW 3.5 mph - N/A   Clear
1:55 PM 35.6 °F 30.7 °F 30.2 °F 81% 30.17 in 10.0 mi NW 5.8 mph - N/A   Clear
2:15 PM 37.4 °F 34.9 °F 30.2 °F 75% 30.17 in 10.0 mi West 3.5 mph - N/A   Clear
2:35 PM 37.4 °F 34.9 °F 30.2 °F 75% 30.16 in 10.0 mi WSW 3.5 mph - N/A   Clear
2:55 PM 37.4 °F 34.9 °F 30.2 °F 75% 30.15 in 10.0 mi WNW 3.5 mph - N/A   Clear
3:15 PM 37.4 °F 32.1 °F 32.0 °F 81% 30.15 in 10.0 mi WSW 6.9 mph - N/A   Clear
3:35 PM 37.4 °F 32.8 °F 32.0 °F 81% 30.15 in 10.0 mi WSW 5.8 mph - N/A   Clear
3:55 PM 39.2 °F 35.0 °F 32.0 °F 75% 30.14 in 10.0 mi West 5.8 mph - N/A   Clear
4:15 PM 39.2 °F 35.9 °F 32.0 °F 75% 30.15 in 10.0 mi WNW 4.6 mph - N/A   Clear
4:35 PM 37.4 °F 31.4 °F 32.0 °F 81% 30.15 in 10.0 mi SW 8.1 mph - N/A   Clear
4:55 PM 37.4 °F 32.1 °F 32.0 °F 81% 30.16 in 10.0 mi SW 6.9 mph - N/A   Clear
5:15 PM 37.4 °F 30.8 °F 32.0 °F 81% 30.16 in 10.0 mi SSW 9.2 mph - N/A   Clear
5:35 PM 35.6 °F 29.2 °F 32.0 °F 87% 30.16 in 10.0 mi SSW 8.1 mph - N/A   Clear
5:55 PM 35.6 °F 28.6 °F 32.0 °F 87% 30.15 in 10.0 mi SSW 9.2 mph - N/A   Clear
6:15 PM 35.6 °F 29.2 °F 32.0 °F 87% 30.16 in 10.0 mi SSW 8.1 mph - N/A   Clear
6:35 PM 35.6 °F 28.6 °F 32.0 °F 87% 30.15 in 10.0 mi SW 9.2 mph - N/A   Clear
6:55 PM 33.8 °F 26.4 °F 32.0 °F 93% 30.16 in 10.0 mi SW 9.2 mph - N/A   Clear
7:15 PM 35.6 °F 29.2 °F 32.0 °F 87% 30.16 in 10.0 mi SSW 8.1 mph - N/A   Clear
7:35 PM 35.6 °F 28.6 °F 32.0 °F 87% 30.16 in 10.0 mi SSW 9.2 mph - N/A   Clear
7:55 PM 35.6 °F 29.2 °F 32.0 °F 87% 30.16 in 10.0 mi SSW 8.1 mph - N/A   Clear
8:15 PM 35.6 °F 29.2 °F 30.2 °F 81% 30.16 in 10.0 mi SSW 8.1 mph - N/A   Clear
8:35 PM 33.8 °F 26.4 °F 30.2 °F 87% 30.17 in 10.0 mi SSW 9.2 mph - N/A   Clear
8:55 PM 32.0 °F 24.8 °F 30.2 °F 93% 30.17 in 10.0 mi SSW 8.1 mph - N/A   Clear
9:15 PM 33.8 °F 26.4 °F 30.2 °F 87% 30.17 in 10.0 mi SSW 9.2 mph - N/A   Clear
9:35 PM 33.8 °F 27.0 °F 30.2 °F 87% 30.17 in 10.0 mi SSW 8.1 mph - N/A   Clear
9:55 PM 35.6 °F 29.2 °F 30.2 °F 81% 30.16 in 10.0 mi SSW 8.1 mph - N/A   Clear
10:15 PM 33.8 °F 26.4 °F 30.2 °F 87% 30.16 in 10.0 mi SW 9.2 mph - N/A   Clear
10:35 PM 37.4 °F 31.4 °F 30.2 °F 75% 30.16 in 10.0 mi WSW 8.1 mph - N/A   Clear
10:55 PM 37.4 °F 30.8 °F 30.2 °F 75% 30.16 in 10.0 mi SSW 9.2 mph - N/A   Clear
11:15 PM 33.8 °F 26.4 °F 30.2 °F 87% 30.15 in 10.0 mi SSW 9.2 mph - N/A   Clear
11:35 PM 32.0 °F 23.6 °F 30.2 °F 93% 30.15 in 10.0 mi SSW 10.4 mph - N/A   Clear
11:55 PM 33.8 °F 26.4 °F 30.2 °F 87% 30.15 in 10.0 mi SW 9.2 mph - N/A   Clear